Retour au catalogue

QIANFAN-218

ActifCommunicationsPO
NORAD 69817·PAYLOAD·🇨🇳 China

Lancé Jul 4, 2026 depuis Taiyuan Satellite Launch Center

Loading…

Prochains Passages (prochaines 24 heures)

TLE

FraisSource: Space-Track

Époque: Sep 14, 2026, 13:02 UTC

1 69817U 26153T   26257.54316897 -.01874719  00000-0 -97578+0 0  9997
2 69817  88.9975 351.9771 0003306 344.5903  15.5185 14.18466329 10293

Suivez QIANFAN-218 en temps réel avec AllMySat

Download on the App Store